This demonstration page uses our WeatherBlox Daily Observations layout. Learn more.

Left ArrowRight Arrow

47.50024, -111.30081

Hourly Observations for March 29, 2017

Temp ( °F °C ) Dew Point ( °F °C ) Humidity (%) Winds ( mph kmh ) Pressure ( in mb ) Visibility ( mi km ) Precip ( " mm )
12:53 am 00:53 Clear 40 4.4 24 -4.4 53 53 SW 15 24 30.09 1019 10 16 0.00 0.00
1:53 am 01:53 Clear 39 3.9 25 -3.9 57 57 SW 14 22 30.09 1019 10 16 0.00 0.00
2:53 am 02:53 Clear 40 4.4 25 -3.9 55 55 SW 13 20 30.09 1019 10 16 0.00 0.00
3:53 am 03:53 Clear 41 5 26 -3.3 55 55 SW 14 22 30.08 1019 10 16 0.00 0.00
4:53 am 04:53 Clear 41 5 26 -3.3 55 55 SW 15 24 30.08 1019 10 16 0.00 0.00
5:53 am 05:53 Clear 38 3.3 26 -3.3 62 62 WSW 10 17 30.09 1019 10 16 0.00 0.00
6:53 am 06:53 Clear 38 3.3 26 -3.3 62 62 WSW 12 19 30.10 1019 10 16 0.00 0.00
7:53 am 07:53 Sunny 41 5 27 -2.8 57 57 SW 12 19 30.09 1019 10 16 0.00 0.00
8:53 am 08:53 Mostly Cloudy 42 5.6 27 -2.8 55 55 SW 14 22 30.09 1019 10 16 0.00 0.00
9:53 am 09:53 Mostly Cloudy 45 7.2 28 -2.2 52 52 SW 18 30 30.07 1018 10 16 0.00 0.00
10:53 am 10:53 Cloudy 47 8.3 28 -2.2 48 48 SW 17 28 30.04 1017 10 16 0.00 0.00
11:53 am 11:53 Mostly Cloudy 49 9.4 27 -2.8 43 43 SW 22 35 30.00 1016 10 16 0.00 0.00
12:53 pm 12:53 Partly Cloudy 48 8.9 33 0.6 56 56 SW 24 39 29.99 1016 10 16 0.00 0.00
1:53 pm 13:53 Cloudy 45 7.2 38 3.3 77 77 S 13 20 29.98 1015 10 16 0.00 0.03
2:53 pm 14:53 Mostly Cloudy 52 11.1 32 0 47 47 SSW 16 26 29.91 1013 10 16 0.00 0.00
3:53 pm 15:53 Mostly Sunny 55 12.8 33 0.6 44 44 SW 21 33 29.85 1011 10 16 0.00 0.00
4:53 pm 16:53 Partly Cloudy 58 14.4 33 0.6 39 39 SW 23 37 29.81 1010 10 16 0.00 0.00
5:53 pm 17:53 Sunny 56 13.3 34 1.1 44 44 WSW 29 46 29.81 1010 10 16 0.00 0.00
6:53 pm 18:53 Sunny 54 12.2 34 1.1 47 47 SW 31 50 29.78 1009 10 16 0.00 0.00
7:53 pm 19:53 Clear 52 11.1 34 1.1 50 50 WSW 18 30 29.80 1009 10 16 0.00 0.00
8:53 pm 20:53 Clear 50 10 34 1.1 54 54 SW 18 30 29.81 1009 10 16 0.00 0.00
9:53 pm 21:53 Clear 50 10 34 1.1 54 54 SW 22 35 29.78 1009 10 16 0.00 0.00
10:53 pm 22:53 Mostly Clear 50 10 34 1.1 54 54 SW 20 31 29.78 1008 10 16 0.00 0.00
11:53 pm 23:53 Clear 49 9.4 34 1.1 56 56 SW 21 33 29.76 1008 10 16 0.00 0.00

Powered by AerisWeather